RH
43 31 32 26 21 22 24 22 20 23 27 28 29 29 29 19 15 14 14 17 20 22 23 21 19 17 16 17 30 46 52 54 56 60 58 49 53 52 50 54 49 50 49
41 35 32 27 21 20 22 19 18 18 22 27 26 24 23 17 13 13 14 16 18 18 18 21 19 16 16 26 36 52 55 57 52 47 44 43 47 48 48 47 46 47 47
42 34 30 26 22 21 21 19 17 16 19 23 24 21 20 18 14 13 13 16 18 18 18 20 21 18 20 28 36 45 55 51 40 48 48 47 48 45 43 43 42 41 41
38 28 28 25 21 21 22 18 17 17 17 19 20 18 18 17 16 14 14 15 17 18 18 19 21 22 27 32 34 42 42 36 41 46 49 47 47 45 43 39 33 32 32
35 26 26 24 21 21 22 17 17 17 16 16 16 16 16 16 16 16 15 16 17 18 18 20 22 24 29 32 31 35 39 36 39 40 41 42 41 34 29 23 23 22 19
35 26 26 23 20 20 20 17 17 18 16 16 15 15 15 15 16 16 15 14 14 14 16 17 20 23 28 29 31 36 37 39 43 42 40 36 24 24 20 19 20 19 17
33 27 26 23 19 20 19 18 18 18 17 15 15 15 15 15 15 16 15 14 13 13 14 16 20 24 31 33 37 40 38 40 37 38 36 24 26 31 29 25 25 25 23
32 27 25 22 19 19 20 19 18 18 17 16 16 16 16 16 16 15 15 14 14 15 16 19 23 31 40 41 40 38 39 37 39 36 25 27 29 31 35 36 32 30 26
33 29 25 21 20 20 21 20 19 19 18 18 19 19 18 18 17 17 17 17 17 19 21 25 33 41 42 44 43 36 34 33 35 27 25 29 34 38 39 37 38 36 29
42 32 27 22 21 20 22 22 20 19 19 22 22 21 20 19 19 19 20 22 23 25 30 38 41 43 43 44 40 34 36 35 32 26 30 34 38 40 42 43 42 39 36
48 35 31 24 23 23 23 24 22 21 22 23 24 23 22 21 21 21 22 25 32 38 41 40 38 38 36 35 33 31 30 32 28 32 37 42 44 45 46 45 44 40 33
49 38 29 29 26 26 25 25 22 21 22 24 24 26 26 27 31 30 28 34 40 47 48 47 45 43 42 39 36 32 29 26 31 35 39 41 41 43 44 44 41 36 30
50 38 31 27 29 29 29 28 24 23 23 26 33 41 39 54 36 31 42 53 56 54 59 61 60 51 48 45 38 37 34 29 28 30 32 38 44 45 44 43 36 32 31
52 42 34 30 28 29 30 29 27 26 25 36 43 54 62 45 53 54 66 74 74 75 80 80 71 61 56 51 42 37 37 33 34 34 34 33 40 42 43 39 31 30 24
54 42 41 39 35 35 32 31 31 33 33 36 49 64 61 49 58 72 75 80 85 85 82 74 64 57 49 44 37 37 38 35 36 34 34 33 31 32 39 35 25 21 19
56 48 49 46 42 42 38 40 41 38 42 41 44 59 62 63 67 68 81 83 85 81 68 62 53 50 44 38 36 39 39 36 39 37 39 35 29 29 20 11 9 14 19
61 57 54 51 54 47 46 45 46 47 49 51 51 51 55 61 71 68 75 78 75 67 61 59 48 42 40 34 35 39 41 43 41 41 37 32 26 15 13 9 9 8 10
68 58 57 57 56 55 57 56 55 57 57 61 65 48 48 60 63 56 60 64 67 66 61 58 44 40 31 32 36 41 45 41 41 39 28 17 14 12 12 10 9 7 7
77 71 60 57 58 57 58 58 58 57 56 52 52 46 50 60 54 55 58 63 66 63 58 44 42 35 29 35 42 47 46 42 40 31 21 16 14 12 11 9 7 8 8
86 79 70 62 62 57 56 59 62 55 59 55 52 45 45 53 54 56 58 58 57 53 47 43 38 33 35 40 43 44 40 35 27 23 20 17 15 13 10 8 8 8 8
82 79 75 65 66 60 59 56 56 56 57 58 55 45 50 56 57 58 58 51 45 45 45 43 39 43 37 38 40 39 38 30 24 20 19 18 18 14 11 10 8 8 9
77 80 81 73 71 67 61 56 54 55 56 64 56 53 53 56 56 51 45 43 44 46 46 44 45 37 34 38 36 35 33 29 26 23 23 19 17 16 12 12 10 9 9
88 83 82 82 74 69 61 56 58 56 58 70 58 55 51 50 46 40 37 40 46 45 46 47 42 37 33 38 41 36 36 31 28 30 27 24 19 16 12 12 10 10 10
90 84 85 81 77 72 62 59 59 59 66 66 56 50 45 36 35 34 37 42 48 54 53 50 40 35 31 33 33 36 38 29 30 33 30 29 22 16 13 12 10 10 10
85 88 82 79 74 71 63 62 62 72 73 57 54 45 37 33 36 40 43 43 52 53 55 43 36 33 31 33 31 34 35 31 29 26 28 28 22 19 15 12 10 10 11
94 90 86 85 74 71 71 68 75 71 68 58 48 40 35 34 41 42 41 48 45 47 46 40 37 29 31 31 29 29 29 26 26 22 23 25 20 19 19 15 14 11 11